Back to catalog

STARLINK-37652

AliveCommunicationsVLEO
NORAD 69354·PAYLOAD·🇺🇸 United States

Launched Jun 4, 2026 from Cape Canaveral Space Force Station

Loading…

Next Passes (next 24 hours)

TLE

FreshSource: CelesTrak SupGP

Epoch: Sep 14, 2026, 15:03 UTC

1 69354C 26123B   26257.62756944  .00069129  00000+0  19780-2 0  2576
2 69354  53.1579 170.1208 0001249  94.6313 324.7732 15.35361982    12

Track STARLINK-37652 in real time with AllMySat

Download on the App Store